Starlink 11436

operational
NORAD ID: 62887 Int'l Des: 2025-024 Owner: SPXS Country: US Constellation: starlink
LEOCIRCULAR

Über Starlink 11436

Beschreibung wird geladen...

Live-Position

3D-Globus wird geladen...

Nächste Überflüge

Höhenverlauf

Altitude vs Time

uPlot chart will show altitude changes over time

Zweizeiliger Elementsatz

1 62887U 25024J 26036.30143231 .00324002 00000-0 24210-2 0 9990
2 62887 42.9987 16.6002 0001738 15.2626 344.8293 15.70941777 58372
Epoch: 5. Feb. 2026 • Age: 16 hours

Aktueller Status

Höhe 367.5 km
Geschwindigkeit 7.69 km/s
Subsatellitenpunkt -41.11°S, 172.27°E
Startdatum 4. Feb. 2025
Alter 1 years
Typ internet

Technische Details

Klassifizierung Payload
Masse 960.00 kg
Trockenmasse 910.00 kg
Gesamtmasse 960.00 kg
Länge 0.30 m
Durchmesser 4.10 m
Spannweite 29.00 m
Form Box + pan
Hersteller SPXS
Bus-Typ Starlink V2MD
Phasenstatus In Orbit
Besitzer/Staat SPXS/US

Große Konstellationen

Loading constellations...